This is the latest recevied weather packets stored in our database for station/object N8SDR. If no packets are shown the sender has not sent any weather packets the latest 10 day(s).
| Time | Temp. | Humidity | Pressure | Rain* | Wind** | Luminosity | Snow |
|---|---|---|---|---|---|---|---|
| 1777826546 | 16.11° C | 45% | 1014.7 hPa | 0 mm | - | 744 W/m² | - |
| 1777826241 | 15.56° C | 43% | 1015.2 hPa | 0 mm | - | 745 W/m² | - |
| 1777825940 | 16.11° C | 41% | 1015.1 hPa | 0 mm | - | 645 W/m² | - |
| 1777825636 | 15.56° C | 45% | 1015.2 hPa | 0 mm | - | 742 W/m² | - |
| 1777825334 | 16.11° C | 44% | 1015.3 hPa | 0 mm | - | 737 W/m² | - |
| 1777825031 | 15.56° C | 43% | 1015.3 hPa | 0 mm | - | 727 W/m² | - |
| 1777824727 | 16.11° C | 43% | 1015.5 hPa | 0 mm | - | 710 W/m² | - |
| 1777824424 | 15.56° C | 43% | 1015.4 hPa | 0 mm | - | 718 W/m² | - |
| 1777824119 | 16.11° C | 44% | 1015.4 hPa | 0 mm | - | 719 W/m² | - |
| 1777823816 | 16.11° C | 47% | 1015.5 hPa | 0 mm | - | 708 W/m² | - |
| 1777823514 | 15.56° C | 44% | 1015.5 hPa | 0 mm | - | 730 W/m² | - |
| 1777823210 | 15.56° C | 49% | 1015.6 hPa | 0 mm | - | 765 W/m² | - |
| 1777822908 | 15° C | 48% | 1015.6 hPa | 0 mm | - | 760 W/m² | - |
| 1777822606 | 15° C | 51% | 1015.7 hPa | 0 mm | - | 780 W/m² | - |
| 1777822304 | 14.44° C | 54% | 1015.9 hPa | 0 mm | - | 790 W/m² | - |
| 1777822001 | 13.89° C | 52% | 1015.8 hPa | 0 mm | - | 792 W/m² | - |
| 1777821699 | 13.89° C | 55% | 1015.8 hPa | 0 mm | - | 770 W/m² | - |
| 1777821396 | 13.89° C | 54% | 1015.8 hPa | 0 mm | - | 772 W/m² | - |
| 1777821092 | 13.89° C | 57% | 1015.9 hPa | 0 mm | - | 779 W/m² | - |
| 1777820790 | 12.78° C | 57% | 1016 hPa | 0 mm | - | 767 W/m² | - |
| 1777820486 | 13.33° C | 56% | 1015.8 hPa | 0 mm | - | 747 W/m² | - |
| 1777820183 | 12.22° C | 59% | 1016 hPa | 0 mm | - | 718 W/m² | - |
| 1777819880 | 12.78° C | 56% | 1015.9 hPa | 0 mm | - | 749 W/m² | - |
| 1777819577 | 12.22° C | 58% | 1016 hPa | 0 mm | - | 712 W/m² | - |
| 1777819275 | 12.22° C | 58% | 1015.8 hPa | 0 mm | - | 671 W/m² | - |
* Rain latest hour (hover to see other rain measurements)
** Current wind speed in m/s (hover to see current wind gust speed)